User: anonymous
Location: Unspecified
(0.0000°N, 0.0000°E)
Time: 04:01:30
(UTC+00:00)
Language:

AGILE - Orbit

View from above orbital plane
View from above orbital plane
View from above satellite
View from above satellite

Ground track
Ground track

The orbit data is extracted from the following two-line orbital elements,

1 31135U 07013A   14272.36225526  .00008118  00000-0  30976-3 0   662
2 31135 002.4715 235.7227 0016087 119.7464 240.4161 15.20844860411884
Epoch (UTC): 29 September 2014 08:41:38
Eccentricity: 0.0016087
inclination: 2.4715°
perigee height: 492 km
apogee height: 514 km
right ascension of ascending node: 235.7227°
argument of perigee: 119.7464°
revolutions per day: 15.20844860
mean anomaly at epoch: 240.4161°
orbit number at epoch: 41188

The dashed part of the orbit path shows where the satellite is in the earth's shadow,  

DLR